STARLINK-31665, 59655

Orbit data source: Space-Track

STARLINK-31665, 59655 is a payload satellite owned by SpaceX/Seattle (US) in LEO that was launched on Mon, 06 May 2024 UTC via an FALCON 9 launch vehicle from the Air Force Eastern Test Range (AFETR). Payload-class satellites include a variety of spacecraft equipped with specific instruments for various scientific and technological missions. These include communications satellites like Starlink; space stations such as the ISS; scientific satellites like the Hubble; Earth observation satellites from companies like Planet Labs, Umbra, and HawkEye 360; GPS; miniature CubeSats for education and research; and military/defense satellites.

Loading next visibility...
Identifier
59655, 2024-084B
Orbit
LEO
Country
Flag of USUS
Related business
Manufacturer
SpaceX/Seattle
Mission
Operational Commercial Communications
Bus & Motor
STARLINK V2M, Unknown motor
Mass
730 kg wet, ~700 kg dry
Launch date (UTC)
2024-05-06 (1 year ago)
Launch vehicle
FALCON 9
Launch site
Air Force Eastern Test Range (AFETR)
Object type
Payload
Rocket body
Debris
Shape & HBR
Box + 2 Pan, 17.7 m
Radar Cross Section
33.884 m², Large (>1 m²)

Expand to show TLE details & history
Last TLE update: 5 hours ago

TLE from 5 hours ago
0 STARLINK-31665
1 59655U 24084B   25288.59573546  .00001085  00000-0  48963-4 0  9995
2 59655  43.0016 137.6888 0001577 273.8135  86.2537 15.27580221 82224
Epoch: 2025-10-15T14:17Z
TLE epoch observation values (Epoch: 2025-10-15T14:17:51.543Z)
Latitude
0.00001°
Longitude
-101.1435°
Altitude
482.754 km
Speed
7.626 km/s
True Right ascension
09h 10m 45s
True Declination
0° 00' 00"
Sunlit
Object was in daylight at epoch
Visualization orbit readout
Latitude
Unknown
Longitude
Unknown
Altitude
Unknown
Speed
Unknown
Apparent Right ascension
Unknown
Apparent Declination
Unknown
Sunlit
N/A
Visualization observer readout
Local Sidereal Time
13:49:20
Azimuth
Unknown
Elevation
Unknown
Doppler factor
Unknown
Orbital elements
Apogee altitude
486.076 km
Perigee altitude
483.911 km
Semi-major axis
6,863.13 km
Eccentricity
0.00016
Inclination
43.0016°
RAAN
137.6888°
Arg. of periapsis
273.8135°
True anomaly
86.27173°
Mean anomaly
86.2537°
Eccentric anomaly
86.26272°
Mean motion
3.81733 °/min
Orbital period
94.31 mins
BSTAR
0.000048963
Loading maneuver chart data...
Computing Atmospheric mass density...
Loading historical data...
Loading historical data...
Loading historical data...
Loading historical data...
Loading historical data...
Loading historical data...
Loading historical data...

Documentation

Showing up to 5 results
|